FENGYUN 1C DEB, 29809

Orbit data source: Space-Track

FENGYUN 1C DEB, 29809 is space debris in SSO originally from a launch on Mon, 10 May 1999 UTC launched from the Taiyaun Space Center, China (TSC). Fengyun 1C debris stems from the Chinese weather satellite Fengyun-1C, which was intentionally destroyed by a Chinese anti-satellite missile in 2007. This event dramatically increased the amount of space debris, with thousands of trackable fragments posing hazards to satellites and human spaceflight. The Fengyun 1C debris cloud has become a focal point in discussions about space sustainability and the need for international regulations to prevent the creation of new debris.

Loading next visibility...
Identifier
29809, 1999-025DB
Orbit
SSO
Country
Flag of CNCN / PRC
Related business
Manufacturer
Unknown
Mission
Spacecraft
Bus & Motor
Unknown
Mass
Unknown
Launch date (UTC)
1999-05-10 (27 years ago)
Launch vehicle
Unknown
Launch site
Taiyaun Space Center, China (TSC)
Object type
Payload
Rocket body
Debris
Shape & HBR
Unknown shape, 0.1 m
Radar Cross Section
Medium (>0.1 m² and <1 m²)

Expand to show TLE details & history
Last TLE update: 1 day ago

TLE from 1 day ago
0 FENGYUN 1C DEB
1 29809U 99025DB  26253.43975359  .00000400  00000-0  11519-3 0  9990
2 29809  98.8925 235.0821 0114071 255.4623 232.8022 14.47098196 33962
Epoch: 2026-09-10T10:33Z
TLE epoch observation values (Epoch: 2026-09-10T10:33:14.710Z)
Latitude
51.97183°
Longitude
-81.22828°
Altitude
793.176 km
Speed
7.436 km/s
True Right ascension
04h 26m 14s
True Declination
51° 48' 20"
Sunlit
Object was in daylight at epoch
Visualization orbit readout
Latitude
Unknown
Longitude
Unknown
Altitude
Unknown
Speed
Unknown
Apparent Right ascension
Unknown
Apparent Declination
Unknown
Sunlit
N/A
Visualization observer readout
Local Sidereal Time
08:23:02
Azimuth
Unknown
Elevation
Unknown
Doppler factor
Unknown
Orbital elements
Apogee altitude
813.382 km
Perigee altitude
651.164 km
Semi-major axis
7,110.41 km
Eccentricity
0.01141
Inclination
98.8925°
RAAN
235.0821°
Arg. of periapsis
255.4623°
True anomaly
231.76994°
Mean anomaly
232.8022°
Eccentric anomaly
232.28518°
Mean motion
3.61994 °/min
Orbital period
99.45 mins
BSTAR
0.00011519
Loading maneuver chart data...
Computing Atmospheric mass density...
Loading historical data...
Loading historical data...
Loading historical data...
Loading historical data...
Loading historical data...
Loading historical data...
Loading historical data...

Documentation

Showing up to 5 results
|